Regional Weather Roundup
Issued by NWS

Home | Current Version | Previous Version | Text Only | Print | Product List | Glossary On
Versions: 1 2 3 4 5 6 7 8 9 10 11 12 13 14 15 16 17 18 19 20 21 22 23 24 25 26 27
000
ASCA42 TJSJ 231410
RWRPR
PUERTO RICO/U.S. VIRGIN ISLANDS HOURLY WEATHER ROUNDUP
NATIONAL WEATHER SERVICE SAN JUAN PR
1000 AM AST SAT JUL 23 2016

PRZ001-004-231500-
PUERTO RICO

CITY           SKY/WX    TMP DP  RH WIND       PRES   REMARKS
SAN JUAN LMM   MOSUNNY   86  75  70 NE13G20   30.03S HX  95
PONCE          MOSUNNY   91  72  52 S17       30.03  HX  98
AGUADILLA      PTSUNNY   84  73  70 E15       30.06R HX  91
CEIBA          SUNNY     88  75  66 E10       30.05S HX  97
$$

PRZ006-007-231500-
U.S. VIRGIN ISLANDS

CITY           SKY/WX    TMP DP  RH WIND       PRES   REMARKS
CHRISTIANSTED  MOSUNNY   88  72  58 E17       30.02S HX  94
$$

HOURLY WEATHER ROUNDUP FOR THE NEWS MEDIA

CITY           SKY/WX    TMP DP  RH WIND       PRES   REMARKS
ORLANDO        MOSUNNY   82  71  69 CALM      30.05R
NEW YORK       MOSUNNY   90  62  39 W14G21    29.86F HX  90
NEWARK         MOSUNNY   90  63  40 W12G21    29.86S HX  91
CHICAGO        PTSUNNY   84  76  76 VRB3      29.98F HX  93
HARTFORD       SUNNY     85  71  63 VRB7      29.76S HX  90
BOSTON         SUNNY     89  62  40 NW9       29.74F
DALLAS         MOSUNNY   87  72  60 SW7       30.00R HX  93
PHILADELPHIA   MOSUNNY   88  70  55 NW13      29.90F HX  93
LOS ANGELES    PTSUNNY   71  63  75 E7        29.82R
WASHINGTON DC  FAIR      88  68  51 NW14      29.97F HX  91



USA.gov is the U.S. government's official web portal to all federal, state and local government web resources and services.